Regional Weather Roundup
Issued by NWS

Home | Current Version | Previous Version | Text Only | Print | Product List | Glossary On
Versions: 1 2 3 4 5 6 7 8 9 10 11 12 13 14 15 16 17 18 19 20 21 22 23 24 25 26 27
000
ASUS45 KREV 192110
RWRNV
NEVADA REGIONAL WEATHER ROUNDUP
NATIONAL WEATHER SERVICE RENO NV
200 PM PDT TUE SEP 19 2017

NOTE: "FAIR" INDICATES FEW OR NO CLOUDS BELOW 12,000 FEET WITH NO
SIGNIFICANT WEATHER AND/OR OBSTRUCTIONS TO VISIBILITY.

NVZ001-003-004-192200-
WESTERN NEVADA

CITY           SKY/WX    TMP DP  RH WIND       PRES   REMARKS
RENO           MOSUNNY   72  24  16 W22       29.93F
CARSON CITY    FAIR      68  27  21 W16G25    29.95F
MINDEN         FAIR      72  30  21 W12G20    29.94F
SLIDE MTN        N/A     43  25  49 SW17        N/A
FALLON         MOSUNNY   68  23  18 VRB5      29.94F
LOVELOCK       SUNNY     65  23  20 NW9       29.95F
HAWTHORNE      SUNNY     66  30  26 NW10      29.93F
$$

NVZ002-CAZ072-073-192200-
NORTHERN AND CENTRAL SIERRA

CITY           SKY/WX    TMP DP  RH WIND       PRES   REMARKS
S. LAKE TAHOE  SUNNY     60  32  34 SW16G26   30.02F
TRUCKEE        SUNNY     61  27  27 SW15      30.04F
SQUAW VLY 8000   N/A     48  28  46 SW12        N/A
SUSANVILLE     SUNNY     66  27  22 SW16      29.98F
BLUE CANYON    SUNNY     56  35  45 VRB6      30.08S
MAMMOTH LAKES  FAIR      71  22  15 W14G26    30.03F
BRIDGEPORT     FAIR      66  28  24 SW10G22   30.01F
$$

NVZ030-031-036-192200-
NORTHERN NEVADA

CITY           SKY/WX    TMP DP  RH WIND       PRES   REMARKS
ELKO           SUNNY     61  18  18 W23G29    29.95F
WINNEMUCCA     SUNNY     63  22  20 W15G28    29.97F
WENDOVER       CLOUDY    66  24  20 NW20G25   29.87F
$$

NVZ035-037-192200-
CENTRAL NEVADA

CITY           SKY/WX    TMP DP  RH WIND       PRES   REMARKS
ELY            MOSUNNY   66  26  22 W13G23    29.92F
EUREKA           N/A     66  24  20 W20G28    29.95F
$$

NVZ013-014-192200-
SOUTH CENTRAL NEVADA

CITY           SKY/WX    TMP DP  RH WIND       PRES   REMARKS
TONOPAH        SUNNY     74  27  17 NW9       29.94F
$$

NVZ017-020-022-192200-
SOUTHERN NEVADA

CITY           SKY/WX    TMP DP  RH WIND       PRES   REMARKS
LAS VEGAS      MOSUNNY   88  44  21 S16G24    29.74F
N. LAS VEGAS   SUNNY     88  40  18 S14G21    29.73F
NELLIS AFB     SUNNY     88  42  19 S13       29.72F
HENDERSON      SUNNY     87  44  22 S20G25    29.78F
MERCURY        MOSUNNY   83  39  21 W12G23    29.81F
$$




USA.gov is the U.S. government's official web portal to all federal, state and local government web resources and services.